TimeEDT,TemperatureF,Dew PointF,Humidity,Sea Level PressureIn,VisibilityMPH,Wind Direction,Wind SpeedMPH,Gust SpeedMPH,PrecipitationIn,Events,Conditions,WindDirDegrees,DateUTC
12:02 AM,69.8,68.0,94,29.88,7.0,Calm,Calm,-,N/A,,Mostly Cloudy,0,2013-07-23 04:02:00
12:42 AM,69.8,69.8,100,29.90,8.0,Calm,Calm,-,N/A,,Overcast,0,2013-07-23 04:42:00
1:30 AM,69.8,69.8,100,29.89,6.0,SW,4.6,-,N/A,,Overcast,230,2013-07-23 05:30:00
1:53 AM,70.0,69.1,97,29.85,6.0,Calm,Calm,-,N/A,,Overcast,0,2013-07-23 05:53:00
2:33 AM,69.8,69.8,100,29.89,2.5,Variable,3.5,-,0.05,Rain,Light Rain,0,2013-07-23 06:33:00
2:41 AM,69.8,69.8,100,29.89,5.0,Calm,Calm,-,0.05,Rain,Light Rain,0,2013-07-23 06:41:00
2:53 AM,70.0,69.1,97,29.85,4.0,Calm,Calm,-,0.05,,Overcast,0,2013-07-23 06:53:00
3:53 AM,70.0,69.1,97,29.85,5.0,Variable,3.5,-,N/A,,Overcast,0,2013-07-23 07:53:00
4:10 AM,69.8,69.8,100,29.89,4.0,Calm,Calm,-,0.00,,Overcast,0,2013-07-23 08:10:00
4:34 AM,69.8,69.8,100,29.89,5.0,Variable,3.5,-,0.00,,Overcast,0,2013-07-23 08:34:00
4:53 AM,70.0,69.1,97,29.85,4.0,West,5.8,-,0.00,,Overcast,260,2013-07-23 08:53:00
5:22 AM,69.8,69.8,100,29.89,2.5,Calm,Calm,-,N/A,,Overcast,0,2013-07-23 09:22:00
5:41 AM,69.8,69.8,100,29.89,3.0,Variable,3.5,-,N/A,,Overcast,0,2013-07-23 09:41:00
5:53 AM,70.0,69.1,97,29.85,4.0,Variable,3.5,-,N/A,,Overcast,0,2013-07-23 09:53:00
6:53 AM,70.0,69.1,97,29.87,2.0,Calm,Calm,-,N/A,,Overcast,0,2013-07-23 10:53:00
6:57 AM,69.8,69.8,100,29.91,1.5,Calm,Calm,-,N/A,,Overcast,0,2013-07-23 10:57:00
7:08 AM,69.8,69.8,100,29.91,2.0,Calm,Calm,-,N/A,,Overcast,0,2013-07-23 11:08:00
7:49 AM,71.6,69.8,94,29.92,3.0,Variable,4.6,-,N/A,,Overcast,0,2013-07-23 11:49:00
7:53 AM,71.1,69.1,93,29.88,3.0,Calm,Calm,-,N/A,,Overcast,0,2013-07-23 11:53:00
8:00 AM,71.6,69.8,94,29.91,2.5,Calm,Calm,-,N/A,,Overcast,0,2013-07-23 12:00:00
8:13 AM,71.6,69.8,94,29.91,3.0,Calm,Calm,-,N/A,,Overcast,0,2013-07-23 12:13:00
8:53 AM,73.0,70.0,90,29.86,4.0,Calm,Calm,-,N/A,,Mostly Cloudy,0,2013-07-23 12:53:00
9:15 AM,73.4,69.8,88,29.90,5.0,Calm,Calm,-,N/A,,Overcast,0,2013-07-23 13:15:00
9:38 AM,73.4,69.8,88,29.90,6.0,Calm,Calm,-,N/A,,Overcast,0,2013-07-23 13:38:00
9:53 AM,73.9,69.1,85,29.86,6.0,Calm,Calm,-,N/A,,Haze,0,2013-07-23 13:53:00
10:04 AM,75.2,69.8,83,29.90,7.0,Calm,Calm,-,N/A,,Overcast,0,2013-07-23 14:04:00
10:07 AM,75.2,69.8,83,29.90,7.0,Calm,Calm,-,N/A,,Mostly Cloudy,0,2013-07-23 14:07:00
10:28 AM,75.2,69.8,83,29.90,7.0,Calm,Calm,-,N/A,,Mostly Cloudy,0,2013-07-23 14:28:00
10:40 AM,75.2,71.6,89,29.91,8.0,Variable,3.5,-,N/A,,Mostly Cloudy,0,2013-07-23 14:40:00
10:53 AM,75.9,71.1,85,29.87,8.0,Calm,Calm,-,N/A,,Mostly Cloudy,0,2013-07-23 14:53:00
11:03 AM,78.8,71.6,78,29.91,8.0,Variable,3.5,-,N/A,,Mostly Cloudy,0,2013-07-23 15:03:00
11:53 AM,79.0,70.0,74,29.88,9.0,Variable,3.5,-,N/A,,Scattered Clouds,0,2013-07-23 15:53:00
12:48 PM,78.8,69.8,74,29.91,10.0,Variable,4.6,-,N/A,,Mostly Cloudy,0,2013-07-23 16:48:00
12:53 PM,81.0,70.0,69,29.86,10.0,Variable,3.5,-,N/A,,Mostly Cloudy,0,2013-07-23 16:53:00
1:53 PM,82.9,70.0,65,29.85,10.0,Variable,3.5,-,N/A,,Scattered Clouds,0,2013-07-23 17:53:00
2:53 PM,84.0,66.9,56,29.83,10.0,WNW,6.9,-,N/A,,Partly Cloudy,300,2013-07-23 18:53:00
3:53 PM,84.0,68.0,58,29.80,10.0,Calm,Calm,-,N/A,,Partly Cloudy,0,2013-07-23 19:53:00
4:53 PM,84.9,68.0,57,29.79,10.0,Calm,Calm,-,N/A,,Clear,0,2013-07-23 20:53:00
5:53 PM,82.9,69.1,63,29.79,10.0,West,4.6,-,N/A,,Scattered Clouds,270,2013-07-23 21:53:00
6:53 PM,82.9,71.1,67,29.78,10.0,Calm,Calm,-,N/A,,Partly Cloudy,0,2013-07-23 22:53:00
7:53 PM,80.1,71.1,74,29.78,10.0,Calm,Calm,-,N/A,,Partly Cloudy,0,2013-07-23 23:53:00
8:53 PM,78.1,70.0,76,29.79,10.0,Calm,Calm,-,N/A,,Clear,0,2013-07-24 00:53:00
9:53 PM,75.0,69.1,82,29.79,10.0,Calm,Calm,-,N/A,,Clear,0,2013-07-24 01:53:00
10:53 PM,73.9,70.0,87,29.81,10.0,Calm,Calm,-,N/A,,Clear,0,2013-07-24 02:53:00
11:53 PM,73.9,70.0,87,29.81,10.0,Calm,Calm,-,N/A,,Clear,0,2013-07-24 03:53:00